User: anonymous   Login
Location: Unspecified
(37.2150°N, 0.0000°E)
Time: 15:38:05
(UTC+00:00)
Language:

N. Korean satellite - Orbit

View from above orbital plane
View from above orbital plane
View from above satellite
View from above satellite

Ground track
Ground track

The orbit data is extracted from the following two-line orbital elements,

1 39026U 12072A   19169.92581949 +.00000935 +00000-0 +36324-4 0  9994
2 39026 097.2104 173.0666 0039932 100.0180 260.5569 15.27804360361571
Epoch (UTC): 18 June 2019 22:13:10
Eccentricity: 0.0039932
inclination: 97.2104°
perigee height: 455 km
apogee height: 510 km
right ascension of ascending node: 173.0666°
argument of perigee: 100.0180°
revolutions per day: 15.27804360
mean anomaly at epoch: 260.5569°
orbit number at epoch: 36157

The dashed part of the orbit path shows where the satellite is in the earth's shadow,  

DLR